Location: Unspecified
(33.6682°S, 0.0000°E)
Time: 10:46:55
(UTC+00:00)

Tiros 1 despin weight - Pass Details

Date: 20 June 2019
Orbit: 594 x 642 km, 48.2° (Epoch: 18 July)

Event Time Altitude Azimuth Distance (km) Brightness Sun altitude
Rises 09:35:33 0° 351° (N) 2,888 ? 23.2°
Reaches altitude 10° 09:38:32 10° 11° (N) 2,000 ? 23.5°
Maximum altitude 09:41:28 17° 51° (NE) 1,613 ? 23.9°
Drops below altitude 10° 09:44:27 10° 91° (E) 2,032 ? 24.2°
Sets 09:47:31 0° 111° (ESE) 2,955 ? 24.6°
